This demonstration page uses our WeatherBlox Daily Observations layout. Learn more.

Hourly Observations for May 20, 2019

Temp ( °F °C ) Dew Point ( °F °C ) Humidity (%) Winds ( mph kmh ) Pressure ( in mb ) Visibility ( mi km ) Precip ( " mm )
12:54 am 00:54 Cloudy 50 10 41 5 71 71 N 12 19 30.06 1018 10 16.09344 0 0
1:54 am 01:54 Partly Cloudy 47 8.3 41 5 80 80 N 13 20 30.06 1018 10 16.09344 0 0
2:54 am 02:54 Clear 46 7.8 41 5 83 83 N 10 17 30.06 1018 10 16.09344 0 0
3:54 am 03:54 Mostly Cloudy 47 8.3 41 5 80 80 NNE 12 19 30.06 1018 10 16.09344 0 0
4:17 am 04:17 Cloudy 47 8.3 41 5 80 80 NE 10 17 30.12 1020 10 16.09344 0 0
4:37 am 04:37 Mostly Cloudy 45 7.2 39 3.9 80 80 NNE 12 19 30.15 1021 10 16.09344 0 0
4:54 am 04:54 Mostly Cloudy 45 7.2 39 3.9 80 80 NE 12 19 30.09 1019 10 16.09344 0 0
5:54 am 05:54 Partly Cloudy 42 5.6 38 3.3 85 85 NE 7 11 30.12 1020 10 16.09344 0.001 0.001
6:54 am 06:54 Partly Cloudy 43 6.1 39 3.9 86 86 N 6 9 30.15 1021 10 16.09344 0 0
7:54 am 07:54 Partly Cloudy 45 7.2 38 3.3 77 77 NE 10 17 30.15 1021 10 16.09344 0 0
8:54 am 08:54 Mostly Cloudy 45 7.2 38 3.3 77 77 NE 8 13 30.15 1021 10 16.09344 0 0
9:54 am 09:54 Mostly Sunny 47 8.3 38 3.3 71 71 NE 16 26 30.12 1020 10 16.09344 0 0
10:41 am 10:41 Mostly Cloudy 48 8.9 38 3.3 68 68 ENE 12 19 30.18 1022 10 16.09344 0 0
10:54 am 10:54 Cloudy 47 8.3 38 3.3 71 71 ENE 9 15 30.15 1021 10 16.09344 0 0
11:54 am 11:54 Cloudy 49 9.4 38 3.3 66 66 E 12 19 30.12 1020 10 16.09344 0 0
12:54 pm 12:54 Cloudy 50 10 39 3.9 66 66 ENE 12 19 30.12 1020 10 16.09344 0 0
1:54 pm 13:54 Mostly Sunny 50 10 38 3.3 63 63 E 13 20 30.09 1019 10 16.09344 0 0
2:54 pm 14:54 Mostly Cloudy 50 10 39 3.9 66 66 ESE 14 22 30.09 1019 10 16.09344 0 0
3:54 pm 15:54 Cloudy with Light Rain 49 9.4 43 6.1 80 80 E 10 17 30.09 1019 9 14.484096 0.02 0.508
4:54 pm 16:54 Cloudy with Light Rain 49 9.4 43 6.1 80 80 E 12 19 30.03 1017 10 16.09344 0.01 0.254
5:54 pm 17:54 Mostly Sunny 50 10 43 6.1 77 77 E 15 24 29.97 1015 10 16.09344 0.001 0.001
6:39 pm 18:39 Mostly Cloudy 50 10 43 6.1 77 77 E 16 26 30.03 1017 10 16.09344 0 0
6:54 pm 18:54 Cloudy 50 10 43 6.1 77 77 E 16 26 29.97 1015 10 16.09344 0 0
7:14 pm 19:14 Cloudy 50 10 43 6.1 77 77 E 20 31 29.97 1015 10 16.09344 0 0
7:54 pm 19:54 Cloudy 50 10 43 6.1 77 77 E 16 26 29.94 1014 10 16.09344 0 0
8:28 pm 20:28 Cloudy 49 9.4 43 6.1 80 80 E 16 26 29.97 1015 10 16.09344 0 0
8:54 pm 20:54 Cloudy 49 9.4 43 6.1 80 80 E 18 30 29.91 1013 10 16.09344 0 0
9:54 pm 21:54 Cloudy 48 8.9 43 6.1 83 83 E 16 26 29.91 1013 10 16.09344 0 0
10:15 pm 22:15 Cloudy 48 8.9 43 6.1 83 83 ENE 17 28 29.94 1014 10 16.09344 0 0
10:34 pm 22:34 Cloudy with Light Rain 48 8.9 43 6.1 83 83 ENE 18 30 29.94 1014 10 16.09344 0.001 0.001
10:54 pm 22:54 Cloudy with Light Rain 48 8.9 43 6.1 83 83 ENE 15 24 29.88 1012 10 16.09344 0.001 0.001
11:40 pm 23:40 Cloudy 48 8.9 43 6.1 83 83 ENE 15 24 29.94 1014 10 16.09344 0.001 0.001
11:54 pm 23:54 Cloudy with Light Rain 48 8.9 43 6.1 83 83 ENE 14 22 29.88 1012 10 16.09344 0.001 0.001

Powered by AerisWeather